CALSPHERE 1 1 900U 64063C 23341.19555333 .00000765 00000-0 79436-3 0 9995 2 900 90.1981 51.3445 0026606 198.4698 215.5522 13.74655765944510 CALSPHERE 2 1 00902U 64063E 23340.23965525 .00000039 00000-0 45591-4 0 9999 2 00902 90.2141 54.7949 0019446 35.0580 25.7518 13.52773507731349 LCS 1 1 01361U 65034C 23340.92933015 .00000011 00000-0 33328-3 0 9997 2 01361 32.1366 209.1585 0004984 18.9200 341.1482 9.89304380118455 TEMPSAT 1 1 01512U 65065E 23340.13462344 .00000054 00000-0 91013-4 0 9997 2 01512 89.9450 215.0006 0068878 324.7614 156.9959 13.33497315836891 CALSPHERE 4(A) 1 1520U 65065H 23341.11126500 .00000136 00000-0 24416-3 0 9999 2 1520 89.9573 128.9389 0069067 186.4522 227.2129 13.36014330839859 OPS 5712 (P/L 160) 1 02826U 67053A 23340.90172318 .00005619 00000-0 12848-2 0 9998 2 02826 69.9255 103.6189 0008122 302.2523 57.7826 14.56141570930791 OPS 5712 (P/L 153) 1 02874U 67053H 23340.92303688 .00000074 00000-0 91741-4 0 9990 2 02874 69.9740 293.8168 0009920 302.4251 57.5895 13.96531024877861 SURCAL 150B 1 2909U 67053J 23341.07967891 .00009410 00000-0 14343-2 0 9992 2 2909 69.9440 62.7675 0006622 317.4705 42.5927 14.74127981943010 RIGIDSPHERE 2 (LCS 4) 1 05398U 71067E 23340.88496986 .00000944 00000-0 31619-3 0 9996 2 05398 87.6252 234.5010 0064008 52.1947 308.5022 14.35252858741317